DLH594 EDDF-DNAA

Flight info

Callsign DLH594
Flight time N/A
Altitude 37000
Route ANEKI3F ANEKI Y163 NATOR/N0462F390 DCT TRA DCT RIPUS DCT GERSA DCT SOSON DCT ODINA DCT PIDAD DCT TALEP DCT VAREK DCT ERPIN DCT ETOIL DCT CIRTA UA605 CSO UR978 AS/N0468F410 UA604 KAN/N0468F400 UR778 KUA UV456 OXORU OXORU1R
Aircraft A346/H-SDE2E3FGHIJ3J4J5M1P2RWXYZ/LB1D1

Departure

Time N/A
Airport Frankfurt Main Airport (EDDF)

Arrival

Time 2026-05-04 05:37
Airport Nnamdi Azikiwe International Airport (DNAA)
Time Latitude Longitude Altitude Speed Heading
2026-05-04 05:04 12.03473 8.47542 36902 ft 463 kts 199°
2026-05-04 05:04 11.97581 8.45012 36902 ft 458 kts 212°
2026-05-04 05:06 11.76760 8.29967 36910 ft 460 kts 218°
2026-05-04 05:07 11.71555 8.26159 36909 ft 460 kts 218°
2026-05-04 05:07 11.66383 8.22380 36912 ft 460 kts 218°
2026-05-04 05:09 11.42905 8.05246 36928 ft 464 kts 218°
2026-05-04 05:10 11.37659 8.01423 36929 ft 463 kts 218°
2026-05-04 05:10 11.32408 7.97599 36937 ft 463 kts 218°
2026-05-04 05:11 11.27162 7.93778 36937 ft 463 kts 217°
2026-05-04 05:11 11.21918 7.89962 36936 ft 463 kts 217°
2026-05-04 05:12 11.16705 7.86168 36941 ft 464 kts 217°
2026-05-04 05:12 11.11447 7.82346 36944 ft 464 kts 217°
2026-05-04 05:13 11.06208 7.78539 36495 ft 461 kts 217°
2026-05-04 05:13 11.03572 7.76625 35437 ft 470 kts 217°
2026-05-04 05:13 11.00884 7.74672 34221 ft 480 kts 217°
2026-05-04 05:14 10.98155 7.72690 33255 ft 481 kts 217°
2026-05-04 05:14 10.95467 7.70736 32422 ft 480 kts 217°
2026-05-04 05:14 10.92763 7.68773 31677 ft 476 kts 217°
2026-05-04 05:14 10.90076 7.66823 30913 ft 473 kts 217°
2026-05-04 05:15 10.87387 7.64872 30227 ft 475 kts 217°
2026-05-04 05:15 10.84689 7.62913 29394 ft 478 kts 217°
2026-05-04 05:15 10.81977 7.60945 28621 ft 479 kts 217°
2026-05-04 05:15 10.79267 7.58980 27934 ft 478 kts 216°
2026-05-04 05:16 10.76578 7.57032 27495 ft 471 kts 216°
2026-05-04 05:16 10.73921 7.55108 27055 ft 465 kts 216°
2026-05-04 05:16 10.71333 7.53236 26632 ft 460 kts 216°
2026-05-04 05:16 10.68743 7.51363 26170 ft 455 kts 216°
2026-05-04 05:17 10.66176 7.49502 25745 ft 450 kts 216°
2026-05-04 05:17 10.63636 7.47666 25320 ft 446 kts 216°
2026-05-04 05:17 10.60998 7.46021 24881 ft 443 kts 207°
2026-05-04 05:17 10.58148 7.44874 24467 ft 439 kts 197°
2026-05-04 05:18 10.55174 7.44247 24054 ft 436 kts 187°
2026-05-04 05:18 10.52168 7.43904 23644 ft 433 kts 186°
2026-05-04 05:18 10.49221 7.43611 23173 ft 430 kts 185°
2026-05-04 05:18 10.46257 7.43318 22687 ft 427 kts 185°
2026-05-04 05:19 10.43311 7.43022 22194 ft 424 kts 185°
2026-05-04 05:19 10.40382 7.42720 21702 ft 422 kts 185°
2026-05-04 05:19 10.37472 7.42418 21224 ft 420 kts 185°
2026-05-04 05:19 10.34575 7.42115 20740 ft 418 kts 185°
2026-05-04 05:20 10.31686 7.41812 20250 ft 417 kts 185°
2026-05-04 05:20 10.28840 7.41513 19772 ft 416 kts 184°
2026-05-04 05:20 10.25970 7.41212 19290 ft 414 kts 184°
2026-05-04 05:20 10.23102 7.40911 18798 ft 414 kts 184°
2026-05-04 05:21 10.20243 7.40611 18325 ft 413 kts 184°
2026-05-04 05:21 10.17385 7.40312 17783 ft 412 kts 184°
2026-05-04 05:21 10.14537 7.40014 17273 ft 410 kts 184°
2026-05-04 05:21 10.11707 7.39718 16818 ft 408 kts 184°
2026-05-04 05:22 10.08897 7.39423 16371 ft 404 kts 183°
2026-05-04 05:22 10.06109 7.39130 15936 ft 401 kts 183°
2026-05-04 05:22 10.03341 7.38841 15505 ft 399 kts 183°
2026-05-04 05:22 10.00626 7.38557 15075 ft 396 kts 183°
2026-05-04 05:23 9.97885 7.38270 14640 ft 394 kts 183°
2026-05-04 05:23 9.95169 7.37986 14212 ft 392 kts 182°
2026-05-04 05:23 9.92465 7.37703 13772 ft 390 kts 182°
2026-05-04 05:23 9.89775 7.37422 13295 ft 387 kts 182°
2026-05-04 05:24 9.87099 7.37302 12854 ft 382 kts 176°
2026-05-04 05:24 9.84474 7.37501 12428 ft 375 kts 169°
2026-05-04 05:24 9.81926 7.37953 12024 ft 370 kts 166°
2026-05-04 05:24 9.79445 7.38456 11620 ft 366 kts 165°
2026-05-04 05:25 9.76957 7.38970 11201 ft 363 kts 165°
2026-05-04 05:25 9.74492 7.39475 10807 ft 360 kts 165°
2026-05-04 05:25 9.72056 7.39967 10580 ft 350 kts 165°
2026-05-04 05:25 9.69714 7.40437 10460 ft 337 kts 165°
2026-05-04 05:26 9.67454 7.40889 10339 ft 324 kts 165°
2026-05-04 05:26 9.65281 7.41323 10225 ft 313 kts 165°
2026-05-04 05:26 9.63187 7.41741 10122 ft 301 kts 165°
2026-05-04 05:26 9.61198 7.42138 10029 ft 291 kts 165°
2026-05-04 05:27 9.59230 7.42533 9846 ft 288 kts 165°
2026-05-04 05:28 9.45519 7.44737 7620 ft 286 kts 182°
2026-05-04 05:29 9.43510 7.44545 7320 ft 285 kts 184°
2026-05-04 05:29 9.41542 7.44326 7030 ft 284 kts 185°
2026-05-04 05:29 9.39554 7.44106 6727 ft 283 kts 185°
2026-05-04 05:29 9.37601 7.43893 6465 ft 281 kts 185°
2026-05-04 05:31 9.24434 7.42437 4988 ft 247 kts 193°
2026-05-04 05:31 9.22850 7.41917 4957 ft 234 kts 205°
2026-05-04 05:32 9.21465 7.41134 4788 ft 229 kts 214°
2026-05-04 05:32 9.20170 7.40225 4617 ft 223 kts 216°
2026-05-04 05:32 9.18932 7.39316 4475 ft 216 kts 217°
2026-05-04 05:33 9.16608 7.37631 4196 ft 194 kts 216°
2026-05-04 05:33 9.15542 7.36871 3981 ft 181 kts 216°
2026-05-04 05:33 9.14555 7.36170 3823 ft 165 kts 216°
2026-05-04 05:33 9.13653 7.35531 3781 ft 159 kts 216°
2026-05-04 05:34 9.12748 7.34889 3586 ft 158 kts 216°
2026-05-04 05:34 9.11852 7.34253 3383 ft 157 kts 216°
2026-05-04 05:34 9.10960 7.33620 3198 ft 157 kts 217°
2026-05-04 05:34 9.10069 7.32987 2999 ft 156 kts 216°
2026-05-04 05:35 9.09179 7.32355 2800 ft 156 kts 217°
2026-05-04 05:35 9.08295 7.31727 2609 ft 155 kts 216°
2026-05-04 05:35 9.07414 7.31099 2413 ft 154 kts 215°
2026-05-04 05:35 9.06537 7.30477 2196 ft 154 kts 216°
2026-05-04 05:36 9.05660 7.29854 2028 ft 154 kts 215°
2026-05-04 05:36 9.04799 7.29246 1835 ft 153 kts 215°
2026-05-04 05:36 9.03927 7.28631 1590 ft 152 kts 214°
2026-05-04 05:36 9.03060 7.28019 1409 ft 151 kts 216°
2026-05-04 05:37 9.02207 7.27398 1207 ft 150 kts 215°
2026-05-04 05:37 9.01406 7.26830 1141 ft 115 kts 214°
2026-05-04 05:37 9.00965 7.26519 1116 ft 39 kts 215°
2026-05-04 05:38 9.00814 7.26412 1113 ft 19 kts 215°
2026-05-04 05:38 9.00735 7.26367 1119 ft 8 kts 177°
2026-05-04 05:38 9.00680 7.26405 1114 ft 12 kts 130°
2026-05-04 05:38 9.00626 7.26477 1116 ft 14 kts 126°
2026-05-04 05:39 9.00567 7.26560 1119 ft 14 kts 132°
2026-05-04 05:39 9.00448 7.26672 1138 ft 9 kts 100°
2026-05-04 05:39 9.00465 7.26742 1137 ft 9 kts 69°
2026-05-04 05:40 9.00527 7.26829 1139 ft 6 kts 13°
2026-05-04 05:40 9.00559 7.26831 1134 ft 1 kts 359°
2026-05-04 05:40 9.00569 7.26831 1134 ft 0 kts 359°